RA87669 UUEE-ULWW

Flight info

Callsign RA87669
Flight time N/A
Altitude 23000
Route RILPO3H RILPO T753 DEGOP/K0707F220 T747 ABLES/K0695F210
Aircraft YK40/M-SDFIRWY/H

Departure

Time N/A
Airport Sheremetyevo International Airport (UUEE)

Arrival

Time 2026-04-25 16:00
Airport Vologda Airport (ULWW)
Time Latitude Longitude Altitude Speed Heading
2026-04-25 15:20 56.99045 38.34957 22685 ft 316 kts 13°
2026-04-25 15:21 57.01102 38.36319 22685 ft 316 kts 13°
2026-04-25 15:21 57.03163 38.37693 22680 ft 315 kts 13°
2026-04-25 15:21 57.05236 38.39080 22676 ft 315 kts 13°
2026-04-25 15:21 57.07173 38.40380 22682 ft 314 kts 13°
2026-04-25 15:22 57.09229 38.41764 22679 ft 314 kts 13°
2026-04-25 15:22 57.11246 38.43120 22694 ft 313 kts 13°
2026-04-25 15:22 57.13270 38.44481 22685 ft 314 kts 13°
2026-04-25 15:22 57.15200 38.45775 22681 ft 314 kts 13°
2026-04-25 15:23 57.17265 38.47164 22679 ft 314 kts 13°
2026-04-25 15:23 57.19235 38.48496 22679 ft 314 kts 13°
2026-04-25 15:23 57.21303 38.49897 22673 ft 314 kts 13°
2026-04-25 15:23 57.23351 38.51284 22675 ft 314 kts 13°
2026-04-25 15:24 57.25380 38.52660 22678 ft 314 kts 13°
2026-04-25 15:24 57.27450 38.54065 22678 ft 314 kts 13°
2026-04-25 15:24 57.29214 38.55260 22681 ft 314 kts 13°
2026-04-25 15:24 57.30575 38.56181 22677 ft 314 kts 13°
2026-04-25 15:25 57.33322 38.58042 22680 ft 314 kts 13°
2026-04-25 15:25 57.35364 38.59434 22680 ft 314 kts 13°
2026-04-25 15:25 57.37410 38.60829 22681 ft 314 kts 13°
2026-04-25 15:25 57.39462 38.62229 22684 ft 314 kts 13°
2026-04-25 15:26 57.41513 38.63627 22681 ft 314 kts 13°
2026-04-25 15:26 57.43534 38.65008 22671 ft 314 kts 14°
2026-04-25 15:26 57.45589 38.66416 22674 ft 314 kts 14°
2026-04-25 15:26 57.47637 38.67824 22671 ft 313 kts 14°
2026-04-25 15:27 57.49688 38.69234 22676 ft 313 kts 14°
2026-04-25 15:27 57.51720 38.70635 22674 ft 313 kts 14°
2026-04-25 15:27 57.55792 38.73445 22675 ft 313 kts 14°
2026-04-25 15:28 57.57840 38.74863 22681 ft 313 kts 14°
2026-04-25 15:28 57.59866 38.76268 22670 ft 313 kts 14°
2026-04-25 15:28 57.61922 38.77696 22676 ft 313 kts 14°
2026-04-25 15:28 57.63884 38.79056 22674 ft 313 kts 14°
2026-04-25 15:29 57.65928 38.80475 22679 ft 313 kts 14°
2026-04-25 15:29 57.67943 38.81881 22673 ft 313 kts 14°
2026-04-25 15:29 57.69994 38.83308 22674 ft 313 kts 14°
2026-04-25 15:29 57.72017 38.84719 22668 ft 313 kts 14°
2026-04-25 15:30 57.74049 38.86115 22678 ft 313 kts 14°
2026-04-25 15:30 57.76092 38.87505 22674 ft 313 kts 14°
2026-04-25 15:30 57.78130 38.88903 22674 ft 313 kts 14°
2026-04-25 15:30 57.80187 38.90314 22669 ft 314 kts 14°
2026-04-25 15:31 57.82232 38.91721 22672 ft 314 kts 14°
2026-04-25 15:31 57.84262 38.93124 22674 ft 314 kts 14°
2026-04-25 15:31 57.86297 38.94531 22673 ft 314 kts 14°
2026-04-25 15:31 57.88353 38.95955 22672 ft 314 kts 14°
2026-04-25 15:32 57.90402 38.97375 22675 ft 314 kts 14°
2026-04-25 15:32 57.92444 38.98784 22674 ft 314 kts 14°
2026-04-25 15:32 57.94491 39.00201 22671 ft 314 kts 14°
2026-04-25 15:33 57.98582 39.03048 22668 ft 315 kts 14°
2026-04-25 15:33 58.00631 39.04478 22670 ft 315 kts 14°
2026-04-25 15:33 58.02679 39.05902 22670 ft 315 kts 14°
2026-04-25 15:33 58.04704 39.07309 22676 ft 315 kts 14°
2026-04-25 15:34 58.06768 39.08749 22676 ft 315 kts 14°
2026-04-25 15:34 58.08805 39.10182 22675 ft 315 kts 14°
2026-04-25 15:34 58.10855 39.11627 22677 ft 315 kts 14°
2026-04-25 15:34 58.12215 39.12585 22676 ft 315 kts 14°
2026-04-25 15:35 58.16835 39.15848 22680 ft 315 kts 14°
2026-04-25 15:35 58.18883 39.17299 22681 ft 315 kts 14°
2026-04-25 15:35 58.20932 39.18755 22686 ft 315 kts 14°
2026-04-25 15:36 58.25040 39.21682 22687 ft 315 kts 14°
2026-04-25 15:36 58.27063 39.23130 22684 ft 315 kts 14°
2026-04-25 15:36 58.29124 39.24603 22688 ft 315 kts 14°
2026-04-25 15:37 58.31176 39.26070 22689 ft 315 kts 14°
2026-04-25 15:37 58.33203 39.27524 22687 ft 315 kts 14°
2026-04-25 15:37 58.35269 39.29014 22692 ft 315 kts 14°
2026-04-25 15:37 58.37283 39.30470 22693 ft 315 kts 14°
2026-04-25 15:38 58.39342 39.31956 22689 ft 315 kts 14°
2026-04-25 15:38 58.41383 39.33424 22695 ft 314 kts 13°
2026-04-25 15:38 58.43440 39.34856 22695 ft 315 kts 13°
2026-04-25 15:38 58.45470 39.36297 22697 ft 315 kts 14°
2026-04-25 15:39 58.47533 39.37781 22700 ft 315 kts 14°
2026-04-25 15:39 58.49582 39.39265 22704 ft 315 kts 14°
2026-04-25 15:39 58.51625 39.40749 22701 ft 315 kts 14°
2026-04-25 15:39 58.53666 39.42238 22703 ft 315 kts 14°
2026-04-25 15:40 58.55708 39.43730 22703 ft 315 kts 14°
2026-04-25 15:40 58.57061 39.44720 22699 ft 315 kts 14°
2026-04-25 15:40 58.59785 39.46726 22707 ft 315 kts 14°
2026-04-25 15:40 58.61824 39.48233 22707 ft 315 kts 14°
2026-04-25 15:41 58.63861 39.49741 22711 ft 315 kts 14°
2026-04-25 15:41 58.65912 39.51263 22709 ft 315 kts 14°
2026-04-25 15:41 58.67947 39.52773 22506 ft 320 kts 14°
2026-04-25 15:41 58.70047 39.54321 22162 ft 323 kts 14°
2026-04-25 15:42 58.72143 39.55853 21824 ft 324 kts 14°
2026-04-25 15:42 58.74244 39.57382 21492 ft 325 kts 14°
2026-04-25 15:42 58.76335 39.58881 21169 ft 318 kts 13°
2026-04-25 15:42 58.78332 39.60308 20817 ft 297 kts 14°
2026-04-25 15:43 58.80174 39.61671 20433 ft 278 kts 14°
2026-04-25 15:43 58.81954 39.63016 20019 ft 264 kts 14°
2026-04-25 15:43 58.83608 39.64281 19583 ft 253 kts 14°
2026-04-25 15:43 58.85217 39.65498 19129 ft 243 kts 13°
2026-04-25 15:44 58.86774 39.66502 18663 ft 236 kts 12°
2026-04-25 15:44 58.88305 39.67477 18168 ft 231 kts 12°
2026-04-25 15:44 58.89821 39.68447 17667 ft 228 kts 12°
2026-04-25 15:44 58.91301 39.69390 17171 ft 225 kts 12°
2026-04-25 15:45 58.92784 39.70321 16674 ft 222 kts 12°
2026-04-25 15:45 58.94226 39.71210 16184 ft 219 kts 12°
2026-04-25 15:45 58.95679 39.72088 15690 ft 221 kts 12°
2026-04-25 15:45 58.96656 39.72666 15374 ft 224 kts 12°
2026-04-25 15:46 58.98678 39.73833 14760 ft 229 kts 12°
2026-04-25 15:46 59.00187 39.74680 14326 ft 230 kts 12°
2026-04-25 15:46 59.01721 39.75522 13897 ft 231 kts 11°
2026-04-25 15:46 59.03276 39.76363 13472 ft 231 kts 12°
2026-04-25 15:47 59.04803 39.77178 13062 ft 234 kts 12°
2026-04-25 15:47 59.06411 39.78024 12661 ft 241 kts 12°
2026-04-25 15:47 59.08026 39.78867 12288 ft 246 kts 12°
2026-04-25 15:47 59.09679 39.79719 11927 ft 248 kts 12°
2026-04-25 15:48 59.11371 39.80587 11575 ft 250 kts 12°
2026-04-25 15:48 59.13049 39.81444 11236 ft 250 kts 12°
2026-04-25 15:48 59.14707 39.82286 10906 ft 250 kts 12°
2026-04-25 15:48 59.16390 39.83140 10574 ft 250 kts 12°
2026-04-25 15:49 59.18071 39.83990 10247 ft 249 kts 12°
2026-04-25 15:49 59.19729 39.84821 9926 ft 248 kts 12°
2026-04-25 15:49 59.21430 39.85286 9609 ft 244 kts
2026-04-25 15:49 59.23104 39.85475 9287 ft 244 kts
2026-04-25 15:50 59.24793 39.85784 8964 ft 245 kts
2026-04-25 15:50 59.26483 39.86124 8640 ft 246 kts
2026-04-25 15:50 59.28178 39.86332 8303 ft 244 kts 351°
2026-04-25 15:50 59.29665 39.84978 7978 ft 237 kts 314°
2026-04-25 15:51 59.30343 39.82238 7630 ft 221 kts 275°
2026-04-25 15:51 59.30191 39.80342 7380 ft 213 kts 247°
2026-04-25 15:51 59.28727 39.78131 6829 ft 208 kts 189°
2026-04-25 15:51 59.27357 39.78805 6394 ft 209 kts 145°
2026-04-25 15:52 59.26611 39.81187 5944 ft 210 kts 99°
2026-04-25 15:52 59.26914 39.83860 5493 ft 208 kts 54°
2026-04-25 15:52 59.28072 39.85349 5034 ft 201 kts
2026-04-25 15:52 59.29417 39.85249 4643 ft 193 kts 347°
2026-04-25 15:53 59.30715 39.84776 4243 ft 191 kts 348°
2026-04-25 15:53 59.31941 39.84410 4118 ft 167 kts 349°
2026-04-25 15:53 59.33031 39.84119 3931 ft 154 kts 349°
2026-04-25 15:53 59.34073 39.83853 3687 ft 148 kts 349°
2026-04-25 15:54 59.35103 39.83591 3436 ft 154 kts 349°
2026-04-25 15:54 59.36189 39.83308 3232 ft 160 kts 349°
2026-04-25 15:54 59.37302 39.83017 3128 ft 161 kts 349°
2026-04-25 15:54 59.38414 39.82725 3057 ft 165 kts 349°
2026-04-25 15:55 59.39570 39.82419 3006 ft 167 kts 349°
2026-04-25 15:55 59.40718 39.82846 2868 ft 179 kts 32°
2026-04-25 15:55 59.41388 39.84864 2791 ft 179 kts 73°
2026-04-25 15:55 59.41722 39.87185 2776 ft 177 kts 74°
2026-04-25 15:56 59.41988 39.89524 2748 ft 175 kts 92°
2026-04-25 15:56 59.41474 39.91560 2649 ft 169 kts 145°
2026-04-25 15:56 59.40393 39.91958 2576 ft 160 kts 197°
2026-04-25 15:56 59.39365 39.91191 2614 ft 155 kts 203°
2026-04-25 15:57 59.38382 39.90494 2575 ft 149 kts 202°
2026-04-25 15:57 59.37443 39.89935 2498 ft 134 kts 195°
2026-04-25 15:57 59.36540 39.89817 2349 ft 131 kts 179°
2026-04-25 15:57 59.35631 39.90302 2217 ft 136 kts 169°
2026-04-25 15:58 59.34758 39.90872 2139 ft 131 kts 166°
2026-04-25 15:58 59.33876 39.91379 1976 ft 133 kts 169°
2026-04-25 15:58 59.32964 39.91850 1753 ft 138 kts 170°
2026-04-25 15:58 59.32044 39.92351 1485 ft 138 kts 168°
2026-04-25 15:59 59.31142 39.92850 1204 ft 130 kts 167°
2026-04-25 15:59 59.30276 39.93330 914 ft 130 kts 167°
2026-04-25 15:59 59.29436 39.93789 623 ft 128 kts 166°
2026-04-25 15:59 59.28635 39.94231 393 ft 106 kts 166°
2026-04-25 16:00 59.28131 39.94509 388 ft 46 kts 163°
2026-04-25 16:00 59.28024 39.94568 388 ft 49 kts 164°
2026-04-25 16:00 59.27633 39.94790 385 ft 16 kts 169°
2026-04-25 16:00 59.27585 39.94801 385 ft 5 kts 110°
2026-04-25 16:01 59.27601 39.94823 385 ft 2 kts 342°
2026-04-25 16:01 59.27660 39.94778 385 ft 17 kts 341°
2026-04-25 16:01 59.27812 39.94692 385 ft 25 kts 343°
2026-04-25 16:01 59.27972 39.94600 388 ft 21 kts 343°
2026-04-25 16:02 59.28106 39.94525 388 ft 18 kts 344°